Weather History for Hyannis, MA

Change the Weather History Date:

Monday, July 8, 2013

  Actual Average Record
Temperature  
Mean Temperature 78 °F -  
Max Temperature 84 °F 79 °F 94 °F (1937)
Min Temperature 71 °F 63 °F 48 °F (1957)
Cooling Degree Days 12    
Growing Degree Days 28 (Base 50)    
Moisture  
Dew Point 71 °F    
Average Humidity 80    
Maximum Humidity 94    
Minimum Humidity 63    
Precipitation  
Precipitation 0.00 in - - ()
Sea Level Pressure  
Sea Level Pressure 29.97 in    
Wind  
Wind Speed 8 mph (SW)    
Max Wind Speed 14 mph    
Max Gust Speed 22 mph    
Visibility 9 miles    
Events      
Averages and records for this station are not official NWS values.
T = Trace of Precipitation, MM = Missing Value Source: NWS Daily Summary

Daily Weather History Graph

Daily Weather History Graph

Search for Another Location

Airport:

Trip Planner

Search our weather history database for the weather conditions in past years. The results will help you decide how hot, cold, wet, or windy it might be!

Date:

Astronomy

Jul. 08, 2013 Rise Set
Actual Time 5:14 AM EDT 8:17 PM EDT
Civil Twilight 4:41 AM EDT 8:50 PM EDT
Nautical Twilight 3:58 AM EDT 9:33 PM EDT
Astronomical Twilight 3:07 AM EDT 10:23 PM EDT
Moon 5:42 AM EDT (7/8) 8:16 PM EDT (7/8)
Length of Visible Light 16h 09m
Length of Day
15h 02m
New Moon, 0% of the Moon is Illuminated
Jul 8
New Moon
Jul 15
First Quarter
Jul 22
Full
Jul 29
Last Quarter
Aug 6
New

Hourly Weather History & Observations

Time (EDT) Temp. Heat Index Dew Point Humidity Pressure Visibility Wind Dir Wind Speed Gust Speed Precip Events Conditions
12:09 AM 73.4 °F - 71.6 °F 94% 29.95 in 6.0 mi SSW 8.1 mph - N/A   Mostly Cloudy
12:56 AM 73.9 °F - 72.0 °F 93% 29.94 in 9.0 mi South 5.8 mph - N/A   Mostly Cloudy
1:08 AM 73.4 °F - 71.6 °F 94% 29.93 in 8.0 mi SSW 6.9 mph - N/A   Partly Cloudy
1:54 AM 73.4 °F - 71.6 °F 94% 29.94 in 8.0 mi SSW 8.1 mph - N/A   Mostly Cloudy
1:56 AM 73.9 °F - 72.0 °F 93% 29.94 in 8.0 mi SSW 5.8 mph - N/A   Mostly Cloudy
4:56 AM 73.0 °F - 71.1 °F 93% 29.94 in 10.0 mi South 3.5 mph - N/A   Clear
5:56 AM 73.9 °F - 72.0 °F 93% 29.95 in 9.0 mi South 4.6 mph - N/A   Clear
6:56 AM 75.9 °F - 72.0 °F 87% 29.95 in 10.0 mi SSW 6.9 mph - N/A   Clear
7:56 AM 79.0 °F - 69.1 °F 72% 29.95 in 10.0 mi SW 13.8 mph - N/A   Clear
8:56 AM 80.1 °F 83.2 °F 70.0 °F 71% 29.95 in 10.0 mi SW 13.8 mph - N/A   Clear
9:56 AM 82.0 °F 85.9 °F 70.0 °F 67% 29.96 in 10.0 mi SW 9.2 mph 21.9 mph N/A   Clear
10:56 AM 80.1 °F 83.2 °F 70.0 °F 71% 29.95 in 10.0 mi SSW 11.5 mph - N/A   Clear
11:56 AM 82.0 °F 86.3 °F 71.1 °F 69% 29.96 in 10.0 mi SW 11.5 mph - N/A   Clear
12:56 PM 84.0 °F 89.6 °F 72.0 °F 67% 29.96 in 10.0 mi SSW 10.4 mph - N/A   Clear
1:56 PM 84.0 °F 89.6 °F 72.0 °F 67% 29.96 in 10.0 mi SW 12.7 mph - N/A   Clear
2:56 PM 84.9 °F 90.7 °F 72.0 °F 65% 29.97 in 10.0 mi SSW 11.5 mph - N/A   Clear
3:56 PM 84.9 °F 90.1 °F 71.1 °F 63% 29.97 in 10.0 mi SSW 12.7 mph - N/A   Clear
4:56 PM 82.9 °F 88.0 °F 72.0 °F 69% 29.97 in 10.0 mi North 4.6 mph - N/A   Clear
5:56 PM 82.9 °F 88.0 °F 72.0 °F 69% 29.97 in 10.0 mi North 3.5 mph - N/A   Clear
6:56 PM 82.0 °F 85.9 °F 70.0 °F 67% 29.98 in 10.0 mi WSW 8.1 mph - N/A   Clear
7:56 PM 77.0 °F - 70.0 °F 79% 29.99 in 10.0 mi SSW 8.1 mph - N/A   Clear
8:56 PM 75.0 °F - 70.0 °F 84% 30.01 in 10.0 mi SW 6.9 mph - N/A   Clear
9:56 PM 73.9 °F - 69.1 °F 85% 30.03 in 10.0 mi SW 6.9 mph - N/A   Clear
10:56 PM 73.9 °F - 70.0 °F 87% 30.04 in 10.0 mi SW 10.4 mph - N/A   Clear
11:45 PM 71.6 °F - 69.8 °F 94% 30.04 in 8.0 mi NNW 5.8 mph - N/A   Mostly Cloudy
11:56 PM 71.1 °F - 69.1 °F 93% 30.04 in 4.0 mi NW 5.8 mph - N/A   Mostly Cloudy